CZ-6A DEB

Satellite information

Favourite Embed

Satellite Type and Status

DEBRISIN ORBIT

Key statistics

Satellite CZ-6A DEB at a glance.

Uptime

335

Days in orbit

Revolutions

≈ 14.5

Per day

Orbit

LEO

Low Earth Orbit

Inclination

89.0

Latest

Satellite identification and parameters

Extended collection of information and parameters for CZ-6A DEB.

Object identification

Identified? True

Debris? True

Object name: CZ-6A DEB

International designator: 2024-140GD

Object number (NORAD): 60802

Object ID (CCSDS): 60802

Country: PEOPLES REPUBLIC OF CHINA (PRC)

Current information (Y/N): Y

RCS size: MEDIUM

Orbital parameters

Period: 98.977 minutes

Inclination: 89.0458 deg

SMA: 7087.89 km

Apoapsis: 803.61 km

Periapsis: 615.9 km

RAAN: 313.0771 deg

Eccentricy: 0.0132416

Argument of periapsis: 9.3973 deg

Mean anomaly: 350.9667 deg

Mean motion: 14.54880507 rev/day

Mean motion (dot): 0.00000333 rev/day2

B* drag term: 0.000064998 1/REarth

Two-line elements (TLE)

Creation date: July 6, 2025, 10:46 p.m.

Reference frame: TEME

Reference center: EARTH

Epoch: July 6, 2025, 9:30 p.m. UTC

TLE line 0: 0 CZ-6A DEB

TLE line 1: 1 60802U 24140GD 25187.89607442 .00000333 00000-0 64998-4 0 9999

TLE line 2: 2 60802 89.0458 313.0771 0132416 9.3973 350.9667 14.54880507 47810

Live tracking on map

Real-time ground track for satellite CZ-6A DEB.

In-orbit conjunctions

A list of the most updated potential collisions computed for object CZ-6A DEB.

Target Orbit TCA Probability of collision Miss distance Type
FENGYUN 1C DEB SSO 2025-02-07 10:59:04 0.0001826633 124.0 (m) DEBRIS
FENGYUN 1C DEB SSO 2024-12-02 16:20:06 0.0003426802 542.0 (m) DEBRIS
CZ-6A DEB SSO 2024-10-01 07:14:20 0.0001198541 651.0 (m) DEBRIS
CZ-6A DEB LEO 2024-09-19 07:56:57 0.001537307 152.0 (m) DEBRIS

Associated space launch

18 Low Earth Orbit communication satellites with Ku, Q and V band payloads for the G60 constellation operated by Shanghai Spacecom Satellite Technology (SSST) with funding backed by the Shanghai local government. Initial constellation will consist of 1296 satellites by 2027 with long term plans to expand it to 12000 satellites.

CZ-6A DEB was lifted into orbit during the mission ‘Long March 6A | G60 Polar Group 01’, on board a Long March 6A space rocket.

The launch took place on Aug. 6, 2024, 6:42 a.m. from Launch Complex 9A.

For more information about the launch, click the button.

Launch to space Long March 6A | G60 Polar Group 01
Long March 6A | G60 Polar Group 01

Agency: N/A

Status: Launch Successful

Launch date: Aug. 6, 2024, 6:42 a.m. UTC

Rocket: Long March 6A

Launch pad: Launch Complex 9A

Location: Taiyuan Satellite Launch Center, People's Republic of China

...

Latest news about this satellite

News about space launch
Brightness of first Chinese broadband constellation satellites alarms astronomers

The first satellites of a Chinese broadband constellation are significantly brighter than those of Western systems, posing a new challenge for astronomers.

News about space launch
Chinese rocket stage breaks up into cloud of more than 700 pieces of space debris

HELSINKI — A Chinese Long March 6A rocket’s upper stage has fragmented into a cloud of over 700 pieces of space debris, adding to concerns about long-term orbital safety. China […]

News about space launch
China's Thousand Sails Megaconstellation Kicks Off with Dangerous Debris Field

China's Thousand Sails Megaconstellation Kicks Off with Dangerous Debris Field


Newsletter sign-up

Weekly statistics, charts and insights to help you stay on top of the space industry.